Location: Campestrin
(46.4667°N, 11.7167°E)
Time: 11:03:09
(UTC+00:00)

ERS-2 - Pass Details

Date: 18 April 2021
Orbit: 491 x 497 km, 98.6° (Epoch: 06 May)

Event Time Altitude Azimuth Distance (km) Brightness Sun altitude
Rises 19:09:36 0° 6° (N) 2,590 6.1 -11.0°
Reaches altitude 10° 19:11:47 10° 358° (N) 1,701 5.3 -11.3°
Maximum altitude 19:15:10 37° 291° (WNW) 789 3.8 -11.8°
Drops below altitude 10° 19:18:31 10° 223° (SW) 1,685 5.0 -12.3°
Sets 19:20:40 0° 215° (SW) 2,561 5.8 -12.7°
